Total_Precipitation_Accumulation
0.88 1.09 1.59 2.24 2.81 2.14 1.48 1.21 0.90 0.81 0.74 0.63 0.58 0.60 0.72 0.86 1.30 1.97 2.09 1.82 1.30 1.10 1.37 1.80 1.92 1.81 1.64 1.46 1.47 1.59 1.62 1.73 1.64 1.45 1.28 1.08 0.95 0.83 0.87 0.86 0.82 0.78 0.67 0.73 0.80 0.76 0.72 0.68 0.57
0.86 1.64 2.18 2.96 2.72 1.67 1.42 1.21 1.05 0.76 0.61 0.47 0.40 0.52 0.65 0.60 0.74 1.42 2.11 2.01 1.25 0.97 1.11 1.38 1.56 1.55 1.52 1.48 1.51 1.59 1.55 1.46 1.33 1.17 1.02 0.93 0.93 0.84 0.78 0.80 0.82 0.76 0.67 0.70 0.74 0.80 0.75 0.65 0.54
1.01 1.87 2.44 2.69 1.89 1.42 1.38 1.16 0.98 0.72 0.56 0.47 0.38 0.38 0.56 0.79 1.00 1.67 1.92 1.35 1.05 0.88 1.09 1.37 1.49 1.41 1.41 1.37 1.44 1.48 1.42 1.27 1.16 1.09 1.00 0.91 0.90 0.87 0.84 0.81 0.83 0.75 0.65 0.60 0.69 0.75 0.68 0.61 0.52
1.38 2.18 2.42 2.01 1.47 1.11 0.99 1.01 0.81 0.68 0.49 0.36 0.35 0.47 0.62 0.96 1.20 1.57 1.50 1.09 0.95 0.93 1.16 1.31 1.43 1.38 1.30 1.35 1.38 1.26 1.08 1.01 1.11 1.11 1.02 0.95 0.89 0.86 0.84 0.79 0.72 0.63 0.60 0.60 0.66 0.69 0.64 0.62 0.53
1.73 2.35 2.29 1.70 1.34 1.13 0.93 0.85 0.71 0.63 0.53 0.41 0.35 0.62 0.99 1.19 1.24 1.28 1.24 1.05 1.00 1.18 1.41 1.30 1.36 1.34 1.24 1.22 1.24 1.10 1.05 1.09 1.26 1.22 1.11 1.05 0.93 0.85 0.82 0.74 0.61 0.54 0.56 0.62 0.76 0.77 0.60 0.56 0.53
2.17 2.32 2.48 1.85 1.42 1.23 1.10 0.83 0.65 0.55 0.48 0.40 0.41 0.67 1.15 1.39 1.38 1.37 1.30 1.22 1.15 1.21 1.32 1.31 1.41 1.36 1.20 1.08 1.05 0.93 0.96 1.17 1.35 1.29 1.25 1.31 1.05 0.84 0.72 0.66 0.60 0.54 0.53 0.60 0.73 0.75 0.60 0.53 0.57
2.30 2.37 2.09 1.58 1.44 1.56 1.20 0.75 0.64 0.60 0.59 0.46 0.39 0.69 1.20 1.52 1.31 1.17 1.19 1.10 1.08 1.10 1.09 1.06 1.11 1.18 1.09 1.03 1.05 0.99 1.02 1.11 1.23 1.18 1.18 1.18 0.88 0.66 0.60 0.60 0.58 0.57 0.61 0.67 0.69 0.72 0.65 0.62 0.64
1.61 1.72 1.67 1.54 1.54 1.55 1.08 0.66 0.55 0.51 0.56 0.39 0.35 0.61 1.11 1.27 1.08 1.11 1.10 1.06 1.06 1.04 0.98 0.85 0.91 1.11 1.20 1.11 1.07 1.12 1.16 1.12 1.18 1.06 1.02 0.96 0.68 0.54 0.55 0.52 0.51 0.52 0.58 0.67 0.71 0.73 0.69 0.66 0.66
1.47 1.69 1.87 1.80 1.53 1.35 0.98 0.75 0.53 0.39 0.43 0.37 0.32 0.38 0.55 0.73 0.85 0.99 1.07 1.04 1.13 1.02 0.93 0.85 0.77 0.83 1.02 1.14 1.06 1.22 1.28 1.20 1.07 0.99 0.98 0.89 0.62 0.52 0.53 0.49 0.58 0.59 0.67 0.74 0.76 0.74 0.67 0.62 0.57
1.46 1.75 1.83 1.38 1.07 1.01 0.92 0.78 0.61 0.56 0.58 0.50 0.43 0.40 0.46 0.61 0.76 0.82 0.87 0.91 0.99 0.96 0.81 0.77 0.72 0.67 0.66 0.74 1.02 1.36 1.17 1.07 0.88 0.87 0.83 0.82 0.76 0.72 0.56 0.57 0.72 0.76 0.77 0.79 0.78 0.75 0.62 0.48 0.40
1.20 1.29 1.20 1.13 0.83 0.69 0.82 0.76 0.57 0.59 0.67 0.51 0.48 0.45 0.46 0.56 0.59 0.62 0.70 0.74 0.76 0.84 0.78 0.70 0.65 0.58 0.57 0.69 0.81 1.01 1.07 1.05 0.92 0.78 0.77 0.85 0.80 0.70 0.60 0.53 0.59 0.67 0.73 0.67 0.67 0.65 0.50 0.44 0.47
1.06 0.99 0.86 0.83 0.66 0.66 0.83 0.70 0.57 0.63 0.58 0.37 0.32 0.36 0.47 0.54 0.51 0.50 0.60 0.73 0.79 0.82 0.80 0.75 0.67 0.62 0.59 0.58 0.57 0.65 0.70 0.74 0.72 0.64 0.66 0.79 0.74 0.69 0.67 0.67 0.63 0.63 0.65 0.72 0.69 0.65 0.57 0.52 0.53
0.98 0.92 0.74 0.61 0.65 0.67 0.72 0.73 0.61 0.60 0.46 0.38 0.34 0.44 0.49 0.49 0.47 0.48 0.56 0.66 0.71 0.75 0.80 0.77 0.70 0.65 0.60 0.56 0.52 0.48 0.57 0.61 0.62 0.66 0.62 0.66 0.70 0.70 0.68 0.65 0.71 0.72 0.70 0.73 0.72 0.63 0.58 0.56 0.53
0.93 0.86 0.79 0.66 0.66 0.69 0.74 0.75 0.67 0.70 0.52 0.42 0.37 0.43 0.45 0.48 0.47 0.50 0.53 0.62 0.64 0.66 0.79 0.82 0.73 0.71 0.67 0.60 0.56 0.54 0.58 0.63 0.61 0.54 0.53 0.58 0.60 0.63 0.73 0.77 0.78 0.79 0.79 0.85 0.84 0.65 0.65 0.67 0.61
0.82 0.88 0.87 0.79 0.78 0.75 0.77 0.93 0.84 0.75 0.62 0.58 0.47 0.40 0.43 0.43 0.43 0.49 0.51 0.56 0.61 0.70 0.83 0.82 0.78 0.86 0.79 0.71 0.69 0.61 0.64 0.65 0.63 0.63 0.61 0.65 0.66 0.69 0.78 0.87 0.89 0.87 0.85 0.87 1.09 0.98 0.74 0.69 0.65
0.94 1.03 1.18 0.86 0.77 0.80 0.92 1.08 0.81 0.79 0.73 0.75 0.60 0.50 0.46 0.44 0.43 0.42 0.44 0.55 0.59 0.72 0.82 0.93 0.84 0.91 0.87 0.82 0.82 0.77 0.76 0.78 0.73 0.71 0.73 0.73 0.77 0.80 0.89 0.95 0.86 0.92 0.99 1.02 1.18 1.24 0.94 0.77 0.76
1.09 1.14 1.13 0.91 0.70 0.73 0.81 0.89 0.75 0.71 0.64 0.62 0.58 0.53 0.54 0.43 0.40 0.38 0.39 0.45 0.51 0.67 0.78 0.93 0.95 0.93 0.96 0.97 1.00 0.96 0.92 0.92 0.89 0.88 0.83 0.85 0.89 0.96 1.03 1.05 0.99 0.99 1.01 1.11 1.12 1.32 1.28 1.08 0.96
1.03 0.91 0.87 0.79 0.70 0.71 0.69 0.60 0.59 0.59 0.57 0.52 0.52 0.50 0.45 0.40 0.40 0.38 0.35 0.36 0.42 0.59 0.72 0.85 0.99 1.11 1.17 1.20 1.24 1.23 1.14 1.07 1.09 1.12 1.09 1.09 1.15 1.11 1.17 1.20 1.22 1.30 1.27 1.26 1.19 1.38 1.49 1.29 1.23
0.73 0.72 0.73 0.62 0.56 0.58 0.51 0.45 0.48 0.50 0.51 0.45 0.45 0.45 0.38 0.35 0.38 0.36 0.31 0.33 0.36 0.47 0.58 0.75 1.10 1.52 1.70 1.59 1.54 1.59 1.69 1.67 1.57 1.55 1.51 1.56 1.55 1.55 1.59 1.56 1.55 1.51 1.47 1.52 1.51 1.75 2.09 1.64 1.41
0.68 0.74 0.75 0.64 0.48 0.46 0.45 0.39 0.38 0.41 0.44 0.40 0.37 0.39 0.36 0.33 0.29 0.27 0.23 0.26 0.31 0.48 0.63 0.75 1.04 1.49 1.68 1.78 1.89 2.10 2.27 2.15 2.02 2.00 1.95 2.02 2.03 2.19 2.16 2.14 2.12 2.03 2.02 2.00 1.92 2.01 2.30 1.96 1.74
0.67 0.70 0.70 0.61 0.47 0.41 0.39 0.40 0.35 0.38 0.35 0.33 0.33 0.35 0.31 0.25 0.23 0.24 0.22 0.25 0.30 0.42 0.54 0.68 0.88 1.17 1.52 1.78 2.04 2.32 2.53 2.50 2.38 2.22 2.19 2.25 2.31 2.47 2.61 2.60 2.64 2.46 2.32 2.33 2.25 2.21 2.35 2.41 2.16
0.69 0.48 0.44 0.43 0.54 0.55 0.41 0.59 0.40 0.40 0.38 0.34 0.33 0.33 0.31 0.27 0.25 0.28 0.25 0.25 0.29 0.37 0.46 0.62 0.81 1.04 1.29 1.52 1.93 2.36 2.65 2.74 2.64 2.54 2.49 2.45 2.47 2.52 2.74 2.78 2.88 2.72 2.60 2.54 2.46 2.28 2.38 2.67 2.60
0.51 0.40 0.39 0.41 0.48 0.45 0.32 0.43 0.41 0.33 0.37 0.33 0.31 0.30 0.29 0.27 0.28 0.30 0.30 0.33 0.36 0.37 0.43 0.56 0.72 0.94 1.20 1.43 1.78 2.17 2.44 2.65 2.80 2.62 2.49 2.51 2.54 2.57 2.69 2.84 2.95 2.81 2.68 2.60 2.70 2.58 2.53 2.46 2.44
0.40 0.42 0.40 0.40 0.45 0.50 0.25 0.37 0.48 0.33 0.29 0.30 0.27 0.26 0.27 0.29 0.33 0.38 0.47 0.51 0.50 0.44 0.49 0.59 0.69 0.84 1.02 1.17 1.38 1.61 1.93 2.19 2.53 2.52 2.45 2.57 2.55 2.48 2.41 2.57 2.80 2.74 2.72 2.72 2.80 2.84 2.78 2.76 2.76
0.38 0.55 0.69 0.68 0.65 0.45 0.20 0.34 0.49 0.35 0.27 0.28 0.28 0.28 0.28 0.31 0.36 0.44 0.58 0.63 0.64 0.56 0.52 0.55 0.69 0.78 0.85 0.96 1.06 1.20 1.45 1.61 1.98 2.28 2.26 2.19 2.24 2.30 2.36 2.40 2.40 2.41 2.49 2.63 2.85 2.82 2.72 2.70 2.80
0.31 0.49 0.75 0.83 0.72 0.48 0.34 0.51 0.55 0.39 0.32 0.29 0.27 0.30 0.35 0.38 0.43 0.60 0.76 0.78 0.77 0.69 0.60 0.59 0.71 0.78 0.81 0.87 0.90 0.99 1.12 1.21 1.37 1.58 1.70 1.73 1.80 2.02 2.14 2.25 2.23 2.24 2.31 2.39 2.52 2.55 2.57 2.54 2.53
0.27 0.33 0.38 0.54 0.51 0.54 0.53 0.62 0.55 0.34 0.32 0.34 0.36 0.40 0.50 0.59 0.63 0.76 0.91 0.93 0.84 0.77 0.69 0.67 0.73 0.85 0.87 0.88 0.91 0.99 1.03 1.03 1.13 1.16 1.30 1.49 1.53 1.59 1.73 1.84 1.95 2.07 2.12 2.19 2.35 2.42 2.41 2.43 2.42
0.19 0.25 0.40 0.59 0.73 0.74 0.61 0.63 0.59 0.45 0.44 0.43 0.48 0.54 0.66 0.76 0.83 0.91 1.06 1.07 0.92 0.80 0.70 0.68 0.72 0.85 1.04 1.15 1.11 1.06 1.12 1.19 1.40 1.43 1.29 1.27 1.43 1.49 1.53 1.59 1.67 1.83 1.96 2.05 2.14 2.25 2.35 2.35 2.35
0.23 0.33 0.47 0.61 0.63 0.86 0.95 0.85 0.67 0.64 0.65 0.66 0.67 0.73 0.82 0.93 0.94 0.92 1.01 1.07 0.96 0.77 0.69 0.64 0.66 0.77 0.92 0.96 1.01 1.00 1.05 1.15 1.42 1.65 1.60 1.42 1.41 1.43 1.40 1.35 1.43 1.58 1.71 1.82 1.95 2.01 2.02 2.05 2.18
0.31 0.43 0.63 0.92 0.88 0.81 0.98 0.96 0.72 0.65 0.69 0.69 0.68 0.67 0.72 0.85 0.86 0.89 0.93 0.88 0.79 0.64 0.56 0.53 0.53 0.66 0.78 0.78 0.83 0.91 0.92 1.02 1.14 1.26 1.28 1.23 1.14 1.12 1.17 1.22 1.24 1.32 1.49 1.61 1.66 1.68 1.71 1.78 1.91